"SCET";"TARGET";"ELECTRON_DENSITY";"ERROR_FLAG";"ELECTRON_DENSITY_ERROR";"FREQ_FCE";"MEASURED_VALUE";"MEASURED_ITEM";"FREQ_PLASMA";"FREQ_UPPER_HYBRID";"FREQ_R_EQUALS_ZERO";"FREQ_L_EQUALS_ZERO";"ORBIT_NUMBER";"SATURN_RADIUS";"SATURN_IAU_LONGITUDE";"SATURN_SLS4_S_LONGITUDE";"SATURN_SLS4_N_LONGITUDE";"SATURN_SLS5_S_LONGITUDE";"SATURN_SLS5_N_LONGITUDE";"SATURN_LOCAL_TIME";"SATURN_KRONOGRAPHIC_LATITUDE";"SATURN_MAGNETIC_LATITUDE";"SATURN_L";"SATURN_L_OFFSET";"SATURN_SOLAR_EQUATORIAL_X";"SATURN_SOLAR_EQUATORIAL_Y";"SATURN_SOLAR_EQUATORIAL_Z";"SATURN_ALTITUDE";"ENCELADUS_ENCOUNTER_NUMBER";"ENCELADUS_RADIUS";"ENCELADUS_COROTATIONAL_X";"ENCELADUS_COROTATIONAL_Y";"ENCELADUS_COROTATIONAL_Z";"ENCELADUS_TRUE_ANOMALY";"ENCELADUS_PERIAPSIS_TIME";"JUPITER_RADIUS";"JUPITER_SYSTEMIII_LONGITUDE";"JUPITER_MAGNETIC_LATITUDE";"JUPITER_MAGNETIC_LOCAL_TIME";"JUPITER_L";"IO_PHASE";"EARTH_RADIUS";"EARTH_MAGNETIC_LATITUDE";"EARTH_LOCAL_TIME";"EARTH_L"
"[UTC]";"[0=Saturn, 1=Enceladus, 2=Jupiter, 3=Earth]";"[cm-3]";"[0=automated, 1=manual]";"[normalized density error]";"[Hz]";"[Hz]";"[0=upper hybrid frequency, 1=plasma frequency cutoff]";"[Hz]";"[Hz]";"[Hz]";"[Hz}";"[0, A, B, C, 3, 4, ... , 292, 293]";"[Rs where 1Rs=60268km]";"[degrees]";"[degrees]";"[degrees]";"[degrees]";"[degrees]";"[hours]";"[degrees]";"[degrees where offset=2293km north]";"[Rs where 1Rs=60268km]";"[Rs where 1Rs=60268km and offset=2293km north]";"[Rs where 1Rs=60268km]";"[Rs where 1Rs=60268km]";"[Rs where 1Rs=60268km]";"[km where ellipsoid a,b=60268km and c=54364km]";"[E0, E1, E2, ... , E21, E22]";"[Renc where 1Renc=252.1km]";"[Renc where 1Renc=252.1km]";"[Renc where 1Renc=252.1km]";"[Renc where 1Renc=252.1km]";"[degrees]";"[UTC]";"[Rj where 1Rj=71492km]";"[degrees]";"[degrees using JRM09 model]";"[hours using JRM09 model]";"[Rj where 1Rj=71492km]";"[degrees]";"[Re where 1Re=6378.1366km]";"[degrees]";"[hours]";"[Re where 1Re=6378.1366km]"
2015-10-15T00:00:10.320Z;0;1.4390e+01;0;     0.174;  1016.960;  34083.797; 0;  34068.621;  34083.797;  34580.895;  33563.938;223;   7.393; 320.789;;; 157.250;  88.149;  23.752;  -0.463;  -0.758;   7.394;   7.386;  -7.378;   0.479;  -0.060;;;;;;;;;;;;;;;;;;
2015-10-15T00:00:26.320Z;0;1.5480e+01;0;     0.194;  1016.960;  35340.902; 0;  35326.266;  35340.902;  35838.406;  34821.445;223;   7.396; 320.923;;; 157.385;  88.281;  23.753;  -0.463;  -0.758;   7.396;   7.388;  -7.380;   0.477;  -0.060;;;;;;;;;;;;;;;;;;
2015-10-15T00:00:42.320Z;0;1.3370e+01;0;     0.184;  1016.960;  32849.691; 0;  32833.945;  32849.691;  33346.363;  32329.402;223;   7.398; 321.057;;; 157.520;  88.413;  23.754;  -0.463;  -0.758;   7.398;   7.391;  -7.382;   0.476;  -0.060;;;;;;;;;;;;;;;;;;
2015-10-15T00:00:58.319Z;0;1.4470e+01;0;     0.136;  1016.960;  34177.195; 0;  34162.062;  34177.195;  34674.324;  33657.367;223;   7.400; 321.191;;; 157.654;  88.545;  23.755;  -0.463;  -0.758;   7.401;   7.393;  -7.385;   0.474;  -0.060;;;;;;;;;;;;;;;;;;
2015-10-15T00:01:14.319Z;0;1.4330e+01;0;     0.099;  1004.500;  34003.391; 0;  33988.551;  34003.391;  34494.512;  33490.012;223;   7.402; 321.325;;; 157.789;  88.677;  23.756;  -0.463;  -0.758;   7.403;   7.395;  -7.387;   0.472;  -0.060;;;;;;;;;;;;;;;;;;
2015-10-15T00:02:02.319Z;0;1.0940e+01;0;     0.171;  1001.420;  29720.498; 0;  29703.621;  29720.498;  30208.553;  29207.133;223;   7.409; 321.727;;; 158.194;  89.074;  23.760;  -0.464;  -0.758;   7.410;   7.402;  -7.394;   0.466;  -0.060;;;;;;;;;;;;;;;;;;
2015-10-15T00:02:34.319Z;0;1.0850e+01;0;     0.089;  1001.420;  29592.338; 0;  29575.389;  29592.338;  30080.338;  29078.916;223;   7.414; 321.995;;; 158.465;  89.339;  23.762;  -0.464;  -0.758;   7.414;   7.407;  -7.399;   0.462;  -0.060;;;;;;;;;;;;;;;;;;
2015-10-15T00:03:22.319Z;0;1.0940e+01;0;     0.081;  1013.264;  29717.576; 0;  29700.297;  29717.576;  30211.250;  29197.986;223;   7.421; 322.398;;; 158.871;  89.737;  23.765;  -0.464;  -0.758;   7.421;   7.414;  -7.407;   0.456;  -0.060;;;;;;;;;;;;;;;;;;
2015-10-15T00:03:38.318Z;0;1.3280e+01;0;     0.065;  1013.264;  32741.389; 0;  32725.705;  32741.389;  33236.258;  32222.996;223;   7.423; 322.532;;; 159.006;  89.870;  23.766;  -0.464;  -0.758;   7.424;   7.416;  -7.409;   0.454;  -0.060;;;;;;;;;;;;;;;;;;
2015-10-15T00:04:26.318Z;0;1.2080e+01;0;     0.202;  1009.204;  31222.273; 0;  31205.959;  31222.273;  31714.641;  30705.436;223;   7.430; 322.934;;; 159.414;  90.269;  23.769;  -0.465;  -0.758;   7.430;   7.423;  -7.416;   0.448;  -0.060;;;;;;;;;;;;;;;;;;
2015-10-15T00:04:42.318Z;0;1.4370e+01;0;     0.097;  1009.204;  34060.449; 0;  34045.496;  34060.449;  34553.836;  33544.633;223;   7.432; 323.068;;; 159.549;  90.402;  23.770;  -0.465;  -0.758;   7.433;   7.425;  -7.419;   0.447;  -0.060;;;;;;;;;;;;;;;;;;
2015-10-15T00:04:58.318Z;0;1.4460e+01;0;     0.159;  1009.204;  34159.043; 0;  34144.133;  34159.043;  34652.461;  33643.258;223;   7.435; 323.202;;; 159.685;  90.536;  23.771;  -0.465;  -0.758;   7.435;   7.427;  -7.421;   0.445;  -0.060;;;;;;;;;;;;;;;;;;
2015-10-15T00:05:14.318Z;0;1.4710e+01;0;     0.169;  1000.888;  34454.125; 0;  34439.586;  34454.125;  34943.664;  33942.777;223;   7.437; 323.336;;; 159.821;  90.669;  23.772;  -0.465;  -0.758;   7.437;   7.430;  -7.423;   0.443;  -0.060;;;;;;;;;;;;;;;;;;
2015-10-15T00:05:30.318Z;0;1.4450e+01;0;     0.140;  1000.888;  34155.477; 0;  34140.809;  34155.477;  34644.922;  33644.031;223;   7.439; 323.471;;; 159.958;  90.802;  23.773;  -0.465;  -0.758;   7.440;   7.432;  -7.426;   0.441;  -0.060;;;;;;;;;;;;;;;;;;
2015-10-15T00:05:46.318Z;0;1.5530e+01;0;     0.162;  1000.888;  35398.488; 0;  35384.336;  35398.488;  35888.316;  34887.430;223;   7.441; 323.605;;; 160.094;  90.936;  23.775;  -0.465;  -0.758;   7.442;   7.434;  -7.428;   0.439;  -0.060;;;;;;;;;;;;;;;;;;
2015-10-15T00:06:02.318Z;0;1.4670e+01;0;     0.148;  1001.420;  34412.145; 0;  34397.570;  34412.145;  34901.926;  33900.504;223;   7.444; 323.739;;; 160.230;  91.070;  23.776;  -0.465;  -0.758;   7.444;   7.436;  -7.431;   0.437;  -0.060;;;;;;;;;;;;;;;;;;
2015-10-15T00:06:18.317Z;0;1.3250e+01;0;     0.134;  1001.420;  32705.475; 0;  32690.139;  32705.475;  33194.684;  32193.264;223;   7.446; 323.873;;; 160.366;  91.203;  23.777;  -0.465;  -0.758;   7.446;   7.439;  -7.433;   0.435;  -0.060;;;;;;;;;;;;;;;;;;
2015-10-15T00:06:34.317Z;0;1.4420e+01;0;     0.160;  1001.420;  34119.508; 0;  34104.809;  34119.508;  34609.195;  33607.773;223;   7.448; 324.007;;; 160.503;  91.337;  23.778;  -0.465;  -0.758;   7.449;   7.441;  -7.435;   0.433;  -0.060;;;;;;;;;;;;;;;;;;
2015-10-15T00:06:50.317Z;0;1.1540e+01;0;     0.193;  1001.420;  30518.113; 0;  30501.678;  30518.113;  31006.498;  30005.078;223;   7.451; 324.142;;; 160.639;  91.471;  23.779;  -0.465;  -0.758;   7.451;   7.443;  -7.438;   0.431;  -0.061;;;;;;;;;;;;;;;;;;
2015-10-15T00:07:38.317Z;0;1.1050e+01;0;     0.194;  1012.732;  29870.635; 0;  29853.463;  29870.635;  30364.123;  29351.391;223;   7.457; 324.544;;; 161.049;  91.873;  23.782;  -0.466;  -0.758;   7.458;   7.450;  -7.445;   0.425;  -0.061;;;;;;;;;;;;;;;;;;
2015-10-15T00:07:54.317Z;0;1.1450e+01;0;     0.205;  1012.732;  30403.494; 0;  30386.623;  30403.494;  30897.207;  29884.475;223;   7.460; 324.679;;; 161.186;  92.007;  23.783;  -0.466;  -0.758;   7.460;   7.452;  -7.447;   0.423;  -0.061;;;;;;;;;;;;;;;;;;
2015-10-15T00:08:10.317Z;0;1.3200e+01;0;     0.198;   992.460;  32641.041; 0;  32625.949;  32641.041;  33125.953;  32133.492;223;   7.462; 324.813;;; 161.323;  92.142;  23.784;  -0.466;  -0.758;   7.462;   7.455;  -7.450;   0.421;  -0.061;;;;;;;;;;;;;;;;;;
2015-10-15T00:08:26.317Z;0;1.2740e+01;0;     0.120;   992.460;  32069.359; 0;  32053.998;  32069.359;  32554.070;  31561.609;223;   7.464; 324.947;;; 161.460;  92.276;  23.785;  -0.466;  -0.758;   7.465;   7.457;  -7.452;   0.419;  -0.061;;;;;;;;;;;;;;;;;;
2015-10-15T00:08:58.316Z;0;1.2050e+01;0;     0.188;   992.460;  31185.484; 0;  31169.688;  31185.484;  31669.867;  30677.408;223;   7.469; 325.216;;; 161.735;  92.545;  23.787;  -0.466;  -0.758;   7.469;   7.462;  -7.457;   0.416;  -0.061;;;;;;;;;;;;;;;;;;
2015-10-15T00:09:14.316Z;0;1.3200e+01;0;     0.158;   983.724;  32637.533; 0;  32622.705;  32637.533;  33118.273;  32134.551;223;   7.471; 325.350;;; 161.872;  92.679;  23.788;  -0.466;  -0.758;   7.472;   7.464;  -7.459;   0.414;  -0.061;;;;;;;;;;;;;;;;;;
2015-10-15T00:09:30.316Z;0;1.3320e+01;0;     0.175;   983.724;  32793.430; 0;  32778.672;  32793.430;  33274.223;  32290.500;223;   7.473; 325.484;;; 162.009;  92.814;  23.789;  -0.466;  -0.758;   7.474;   7.466;  -7.462;   0.412;  -0.061;;;;;;;;;;;;;;;;;;
2015-10-15T00:09:46.316Z;0;1.3230e+01;0;     0.174;   983.724;  32683.201; 0;  32668.393;  32683.201;  33163.957;  32180.234;223;   7.476; 325.619;;; 162.147;  92.949;  23.790;  -0.467;  -0.758;   7.476;   7.468;  -7.464;   0.410;  -0.061;;;;;;;;;;;;;;;;;;
2015-10-15T00:10:02.316Z;0;1.2990e+01;0;     0.193;   988.988;  32380.324; 0;  32365.217;  32380.324;  32863.488;  31874.500;223;   7.478; 325.753;;; 162.284;  93.083;  23.791;  -0.467;  -0.758;   7.478;   7.471;  -7.467;   0.408;  -0.061;;;;;;;;;;;;;;;;;;
2015-10-15T00:10:18.316Z;0;1.3250e+01;0;     0.186;   988.988;  32708.641; 0;  32693.686;  32708.641;  33191.918;  32202.932;223;   7.480; 325.887;;; 162.419;  93.217;  23.793;  -0.467;  -0.758;   7.481;   7.473;  -7.469;   0.406;  -0.061;;;;;;;;;;;;;;;;;;
2015-10-15T00:10:34.316Z;0;1.3310e+01;0;     0.172;   988.988;  32777.758; 0;  32762.834;  32777.758;  33261.059;  32272.072;223;   7.483; 326.022;;; 162.553;  93.351;  23.794;  -0.467;  -0.758;   7.483;   7.475;  -7.471;   0.404;  -0.061;;;;;;;;;;;;;;;;;;
2015-10-15T00:10:50.316Z;0;1.4260e+01;0;     0.153;   988.988;  33929.793; 0;  33915.375;  33929.793;  34413.477;  33424.488;223;   7.485; 326.156;;; 162.688;  93.484;  23.795;  -0.467;  -0.758;   7.485;   7.478;  -7.474;   0.402;  -0.061;;;;;;;;;;;;;;;;;;
2015-10-15T00:11:06.316Z;0;1.4720e+01;0;     0.185;   953.372;  34471.398; 0;  34458.211;  34471.398;  34938.195;  33984.824;223;   7.487; 326.290;;; 162.823;  93.618;  23.796;  -0.467;  -0.758;   7.488;   7.480;  -7.476;   0.400;  -0.061;;;;;;;;;;;;;;;;;;
2015-10-15T00:11:38.690Z;0;1.4270e+01;0;     0.193;   953.372;  33933.520; 0;  33920.125;  33933.520;  34400.160;  33446.789;223;   7.492; 326.562;;; 163.095;  93.888;  23.798;  -0.467;  -0.758;   7.492;   7.484;  -7.481;   0.396;  -0.061;;;;;;;;;;;;;;;;;;
2015-10-15T00:12:10.315Z;0;1.1890e+01;0;     0.194;   992.544;  30984.102; 0;  30968.199;  30984.102;  31468.447;  30475.904;223;   7.496; 326.828;;; 163.361;  94.152;  23.800;  -0.467;  -0.758;   7.497;   7.489;  -7.486;   0.392;  -0.061;;;;;;;;;;;;;;;;;;
2015-10-15T00:12:26.315Z;0;1.3010e+01;0;     0.184;   992.544;  32406.236; 0;  32391.033;  32406.236;  32891.105;  31898.562;223;   7.499; 326.962;;; 163.495;  94.286;  23.801;  -0.468;  -0.758;   7.499;   7.491;  -7.488;   0.390;  -0.061;;;;;;;;;;;;;;;;;;
2015-10-15T00:12:42.315Z;0;1.4180e+01;0;     0.182;   992.544;  33829.500; 0;  33814.938;  33829.500;  34314.852;  33322.305;223;   7.501; 327.097;;; 163.629;  94.419;  23.802;  -0.468;  -0.758;   7.501;   7.493;  -7.490;   0.389;  -0.061;;;;;;;;;;;;;;;;;;
2015-10-15T00:12:58.315Z;0;1.3120e+01;0;     0.174;   992.544;  32539.314; 0;  32524.174;  32539.314;  33024.230;  32031.688;223;   7.503; 327.231;;; 163.763;  94.553;  23.803;  -0.468;  -0.758;   7.504;   7.496;  -7.493;   0.387;  -0.061;;;;;;;;;;;;;;;;;;
2015-10-15T00:13:14.315Z;0;1.3470e+01;0;     0.176;   963.928;  32966.566; 0;  32952.473;  32966.566;  33437.961;  32474.031;223;   7.505; 327.366;;; 163.897;  94.687;  23.804;  -0.468;  -0.758;   7.506;   7.498;  -7.495;   0.385;  -0.061;;;;;;;;;;;;;;;;;;
2015-10-15T00:13:30.315Z;0;1.3970e+01;0;     0.187;   963.928;  33577.359; 0;  33563.520;  33577.359;  34048.945;  33085.016;223;   7.508; 327.500;;; 164.032;  94.820;  23.805;  -0.468;  -0.758;   7.508;   7.500;  -7.498;   0.383;  -0.061;;;;;;;;;;;;;;;;;;
2015-10-15T00:13:46.315Z;0;1.3950e+01;0;     0.181;   963.928;  33557.266; 0;  33543.418;  33557.266;  34028.844;  33064.918;223;   7.510; 327.635;;; 164.166;  94.954;  23.806;  -0.468;  -0.758;   7.510;   7.503;  -7.500;   0.381;  -0.061;;;;;;;;;;;;;;;;;;
2015-10-15T00:14:34.314Z;0;1.4700e+01;0;     0.171;   926.856;  34436.859; 0;  34424.383;  34436.859;  34890.930;  33964.074;223;   7.517; 328.038;;; 164.567;  95.355;  23.809;  -0.468;  -0.758;   7.517;   7.509;  -7.507;   0.375;  -0.061;;;;;;;;;;;;;;;;;;
2015-10-15T00:14:50.314Z;0;1.4550e+01;0;     0.174;   926.856;  34266.734; 0;  34254.195;  34266.734;  34720.762;  33793.902;223;   7.519; 328.173;;; 164.701;  95.489;  23.810;  -0.468;  -0.758;   7.520;   7.512;  -7.510;   0.373;  -0.061;;;;;;;;;;;;;;;;;;
2015-10-15T00:15:06.314Z;0;1.4130e+01;0;     0.138;   964.236;  33766.840; 0;  33753.070;  33766.840;  34238.629;  33274.395;223;   7.521; 328.307;;; 164.835;  95.622;  23.811;  -0.469;  -0.758;   7.522;   7.514;  -7.512;   0.371;  -0.062;;;;;;;;;;;;;;;;;;
2015-10-15T00:15:22.314Z;0;1.3150e+01;0;     0.181;   964.236;  32574.908; 0;  32560.635;  32574.908;  33046.320;  32082.086;223;   7.524; 328.442;;; 164.968;  95.756;  23.812;  -0.469;  -0.758;   7.524;   7.516;  -7.514;   0.369;  -0.062;;;;;;;;;;;;;;;;;;
2015-10-15T00:15:38.314Z;0;1.3010e+01;0;     0.124;   964.236;  32402.387; 0;  32388.037;  32402.387;  32873.742;  31909.506;223;   7.526; 328.576;;; 165.102;  95.890;  23.813;  -0.469;  -0.758;   7.526;   7.519;  -7.517;   0.367;  -0.062;;;;;;;;;;;;;;;;;;
2015-10-15T00:15:54.314Z;0;1.2890e+01;0;     0.082;   964.236;  32256.695; 0;  32242.281;  32256.695;  32728.002;  31763.768;223;   7.528; 328.711;;; 165.236;  96.023;  23.814;  -0.469;  -0.758;   7.529;   7.521;  -7.519;   0.365;  -0.062;;;;;;;;;;;;;;;;;;
2015-10-15T00:16:10.314Z;0;1.3120e+01;0;     0.086;   932.512;  32537.072; 0;  32523.707;  32537.072;  32993.305;  32060.793;223;   7.530; 328.845;;; 165.369;  96.157;  23.816;  -0.469;  -0.758;   7.531;   7.523;  -7.521;   0.363;  -0.062;;;;;;;;;;;;;;;;;;
2015-10-15T00:16:26.314Z;0;1.4240e+01;0;     0.199;   932.512;  33897.273; 0;  33884.445;  33897.273;  34353.906;  33421.395;223;   7.533; 328.980;;; 165.502;  96.291;  23.817;  -0.469;  -0.758;   7.533;   7.525;  -7.524;   0.361;  -0.062;;;;;;;;;;;;;;;;;;
2015-10-15T00:16:42.313Z;0;1.3810e+01;0;     0.061;   932.512;  33380.648; 0;  33367.621;  33380.648;  33837.133;  32904.621;223;   7.535; 329.115;;; 165.636;  96.425;  23.818;  -0.469;  -0.758;   7.535;   7.528;  -7.526;   0.359;  -0.062;;;;;;;;;;;;;;;;;;
2015-10-15T00:17:14.313Z;0;1.4250e+01;0;     0.186;   932.932;  33907.461; 0;  33894.625;  33907.461;  34364.301;  33431.367;223;   7.540; 329.384;;; 165.902;  96.692;  23.820;  -0.469;  -0.758;   7.540;   7.532;  -7.531;   0.356;  -0.062;;;;;;;;;;;;;;;;;;
2015-10-15T00:17:30.313Z;0;1.4020e+01;0;     0.168;   932.932;  33640.895; 0;  33627.957;  33640.895;  34097.656;  33164.727;223;   7.542; 329.518;;; 166.035;  96.826;  23.821;  -0.469;  -0.758;   7.542;   7.534;  -7.533;   0.354;  -0.062;;;;;;;;;;;;;;;;;;
2015-10-15T00:17:46.313Z;0;1.3050e+01;0;     0.174;   932.932;  32453.689; 0;  32440.277;  32453.689;  32910.098;  31977.164;223;   7.544; 329.653;;; 166.169;  96.960;  23.822;  -0.470;  -0.758;   7.545;   7.537;  -7.536;   0.352;  -0.062;;;;;;;;;;;;;;;;;;
2015-10-15T00:19:22.312Z;0;1.3300e+01;0;     0.206;   911.484;  32761.725; 0;  32749.043;  32761.725;  33207.957;  32296.471;223;   7.558; 330.461;;; 166.966;  97.763;  23.828;  -0.470;  -0.759;   7.558;   7.550;  -7.550;   0.340;  -0.062;;;;;;;;;;;;;;;;;;
2015-10-15T00:19:38.312Z;0;1.4240e+01;0;     0.196;   911.484;  33900.367; 0;  33888.113;  33900.367;  34346.918;  33435.434;223;   7.560; 330.595;;; 167.098;  97.897;  23.829;  -0.470;  -0.759;   7.561;   7.553;  -7.552;   0.338;  -0.062;;;;;;;;;;;;;;;;;;
2015-10-15T00:19:54.312Z;0;1.4110e+01;0;     0.189;   911.484;  33746.703; 0;  33734.391;  33746.703;  34193.211;  33281.727;223;   7.562; 330.730;;; 167.231;  98.031;  23.830;  -0.470;  -0.759;   7.563;   7.555;  -7.555;   0.336;  -0.062;;;;;;;;;;;;;;;;;;
2015-10-15T00:20:10.312Z;0;1.3130e+01;0;     0.185;   915.796;  32549.891; 0;  32537.006;  32549.891;  32998.125;  32082.328;223;   7.565; 330.865;;; 167.365;  98.164;  23.831;  -0.470;  -0.759;   7.565;   7.557;  -7.557;   0.334;  -0.062;;;;;;;;;;;;;;;;;;
2015-10-15T00:20:26.312Z;0;1.4130e+01;0;     0.179;   915.796;  33763.988; 0;  33751.566;  33763.988;  34212.570;  33296.773;223;   7.567; 331.000;;; 167.498;  98.296;  23.832;  -0.471;  -0.759;   7.567;   7.560;  -7.559;   0.332;  -0.062;;;;;;;;;;;;;;;;;;
2015-10-15T00:20:42.312Z;0;1.4300e+01;0;     0.185;   915.796;  33970.398; 0;  33958.051;  33970.398;  34419.035;  33503.242;223;   7.569; 331.134;;; 167.632;  98.429;  23.833;  -0.471;  -0.759;   7.570;   7.562;  -7.562;   0.330;  -0.062;;;;;;;;;;;;;;;;;;
2015-10-15T00:20:58.312Z;0;1.4040e+01;0;     0.180;   915.796;  33662.375; 0;  33649.914;  33662.375;  34110.930;  33195.133;223;   7.571; 331.269;;; 167.766;  98.561;  23.834;  -0.471;  -0.759;   7.572;   7.564;  -7.564;   0.329;  -0.062;;;;;;;;;;;;;;;;;;
2015-10-15T00:21:14.312Z;0;1.2750e+01;0;     0.178;   939.848;  32082.215; 0;  32068.445;  32082.215;  32541.812;  31601.965;223;   7.574; 331.404;;; 167.900;  98.693;  23.835;  -0.471;  -0.759;   7.574;   7.566;  -7.566;   0.327;  -0.062;;;;;;;;;;;;;;;;;;
2015-10-15T00:21:46.312Z;0;1.3160e+01;0;     0.171;   939.848;  32586.209; 0;  32572.652;  32586.209;  33045.965;  32106.119;223;   7.578; 331.673;;; 168.168;  98.958;  23.837;  -0.471;  -0.759;   7.579;   7.571;  -7.571;   0.323;  -0.062;;;;;;;;;;;;;;;;;;
2015-10-15T00:22:02.311Z;0;1.3110e+01;0;     0.192;   923.776;  32531.857; 0;  32518.738;  32531.857;  32983.906;  32060.131;223;   7.581; 331.808;;; 168.302;  99.090;  23.838;  -0.471;  -0.759;   7.581;   7.573;  -7.573;   0.321;  -0.062;;;;;;;;;;;;;;;;;;
2015-10-15T00:22:18.311Z;0;1.3130e+01;0;     0.185;   923.776;  32549.891; 0;  32536.779;  32549.891;  33001.945;  32078.170;223;   7.583; 331.943;;; 168.436;  99.222;  23.839;  -0.471;  -0.759;   7.583;   7.575;  -7.576;   0.319;  -0.062;;;;;;;;;;;;;;;;;;
2015-10-15T00:22:34.311Z;0;1.3120e+01;0;     0.204;   923.776;  32537.457; 0;  32524.342;  32537.457;  32989.508;  32065.732;223;   7.585; 332.078;;; 168.570;  99.354;  23.840;  -0.471;  -0.759;   7.586;   7.578;  -7.578;   0.317;  -0.062;;;;;;;;;;;;;;;;;;
2015-10-15T00:22:50.311Z;0;1.1890e+01;0;     0.216;   923.776;  30981.625; 0;  30967.850;  30981.625;  31433.182;  30509.406;223;   7.587; 332.212;;; 168.704;  99.486;  23.841;  -0.471;  -0.759;   7.588;   7.580;  -7.581;   0.315;  -0.062;;;;;;;;;;;;;;;;;;
2015-10-15T00:23:06.311Z;0;1.2930e+01;0;     0.098;   899.976;  32301.080; 0;  32288.539;  32301.080;  32741.664;  31841.688;223;   7.590; 332.347;;; 168.838;  99.617;  23.842;  -0.472;  -0.759;   7.590;   7.582;  -7.583;   0.313;  -0.062;;;;;;;;;;;;;;;;;;
2015-10-15T00:23:22.311Z;0;1.4100e+01;0;     0.183;   899.976;  33730.605; 0;  33718.598;  33730.605;  34171.586;  33271.613;223;   7.592; 332.482;;; 168.972;  99.749;  23.843;  -0.472;  -0.759;   7.592;   7.584;  -7.585;   0.311;  -0.062;;;;;;;;;;;;;;;;;;
2015-10-15T00:23:38.311Z;0;1.3050e+01;0;     0.102;   899.976;  32454.049; 0;  32441.568;  32454.049;  32894.676;  31994.701;223;   7.594; 332.617;;; 169.106;  99.881;  23.844;  -0.472;  -0.759;   7.595;   7.587;  -7.588;   0.309;  -0.063;;;;;;;;;;;;;;;;;;
2015-10-15T00:23:54.311Z;0;1.2960e+01;0;     0.168;   899.976;  32340.500; 0;  32327.975;  32340.500;  32781.094;  31881.119;223;   7.596; 332.752;;; 169.240; 100.013;  23.845;  -0.472;  -0.759;   7.597;   7.589;  -7.590;   0.307;  -0.063;;;;;;;;;;;;;;;;;;
2015-10-15T00:24:10.311Z;0;1.4140e+01;0;     0.179;   912.492;  33777.570; 0;  33765.242;  33777.570;  34224.570;  33312.078;223;   7.599; 332.886;;; 169.374; 100.144;  23.846;  -0.472;  -0.759;   7.599;   7.591;  -7.592;   0.305;  -0.063;;;;;;;;;;;;;;;;;;
2015-10-15T00:24:26.311Z;0;1.3150e+01;0;     0.158;   912.492;  32577.436; 0;  32564.654;  32577.436;  33024.094;  32111.604;223;   7.601; 333.021;;; 169.508; 100.276;  23.847;  -0.472;  -0.759;   7.601;   7.594;  -7.595;   0.303;  -0.063;;;;;;;;;;;;;;;;;;
2015-10-15T00:24:42.310Z;0;1.3250e+01;0;     0.178;   912.492;  32697.596; 0;  32684.861;  32697.596;  33144.289;  32231.799;223;   7.603; 333.156;;; 169.642; 100.407;  23.848;  -0.472;  -0.759;   7.604;   7.596;  -7.597;   0.301;  -0.063;;;;;;;;;;;;;;;;;;
2015-10-15T00:24:58.310Z;0;1.3090e+01;0;     0.144;   912.492;  32503.092; 0;  32490.281;  32503.092;  32949.730;  32037.238;223;   7.606; 333.291;;; 169.776; 100.539;  23.849;  -0.472;  -0.759;   7.606;   7.598;  -7.599;   0.300;  -0.063;;;;;;;;;;;;;;;;;;
2015-10-15T00:25:14.310Z;0;1.3330e+01;0;     0.175;   911.204;  32793.430; 0;  32780.770;  32793.430;  33239.535;  32328.332;223;   7.608; 333.426;;; 169.910; 100.670;  23.850;  -0.472;  -0.759;   7.608;   7.600;  -7.602;   0.298;  -0.063;;;;;;;;;;;;;;;;;;
2015-10-15T00:25:30.310Z;0;1.3270e+01;0;     0.162;   911.204;  32721.318; 0;  32708.629;  32721.318;  33167.402;  32256.199;223;   7.610; 333.561;;; 170.044; 100.801;  23.851;  -0.472;  -0.759;   7.611;   7.603;  -7.604;   0.296;  -0.063;;;;;;;;;;;;;;;;;;
2015-10-15T00:26:02.310Z;0;1.4240e+01;0;     0.213;   918.176;  33901.383; 0;  33888.945;  33901.383;  34351.145;  33432.969;223;   7.615; 333.831;;; 170.312; 101.064;  23.854;  -0.473;  -0.759;   7.615;   7.607;  -7.609;   0.292;  -0.063;;;;;;;;;;;;;;;;;;
2015-10-15T00:26:18.310Z;0;1.2970e+01;0;     0.161;   918.176;  32359.029; 0;  32346.000;  32359.029;  32808.348;  31890.170;223;   7.617; 333.965;;; 170.446; 101.195;  23.855;  -0.473;  -0.759;   7.617;   7.609;  -7.611;   0.290;  -0.063;;;;;;;;;;;;;;;;;;
2015-10-15T00:26:34.310Z;0;1.2920e+01;0;     0.192;   918.176;  32295.816; 0;  32282.762;  32295.816;  32745.113;  31826.938;223;   7.619; 334.100;;; 170.580; 101.326;  23.856;  -0.473;  -0.759;   7.620;   7.612;  -7.613;   0.288;  -0.063;;;;;;;;;;;;;;;;;;
2015-10-15T00:26:50.310Z;0;1.2970e+01;0;     0.187;   918.176;  32354.010; 0;  32340.979;  32354.010;  32803.324;  31885.148;223;   7.621; 334.235;;; 170.715; 101.457;  23.857;  -0.473;  -0.759;   7.622;   7.614;  -7.616;   0.286;  -0.063;;;;;;;;;;;;;;;;;;
2015-10-15T00:27:06.310Z;0;1.2730e+01;0;     0.176;   909.608;  32048.475; 0;  32035.564;  32048.475;  32493.596;  31583.988;223;   7.624; 334.370;;; 170.849; 101.588;  23.858;  -0.473;  -0.759;   7.624;   7.616;  -7.618;   0.284;  -0.063;;;;;;;;;;;;;;;;;;
2015-10-15T00:27:38.309Z;0;1.2920e+01;0;     0.166;   909.608;  32289.832; 0;  32277.018;  32289.832;  32735.025;  31825.418;223;   7.628; 334.640;;; 171.117; 101.850;  23.860;  -0.473;  -0.759;   7.629;   7.621;  -7.623;   0.280;  -0.063;;;;;;;;;;;;;;;;;;
2015-10-15T00:27:54.309Z;0;1.1960e+01;0;     0.107;   909.608;  31073.299; 0;  31059.982;  31073.299;  31518.115;  30608.508;223;   7.630; 334.775;;; 171.251; 101.980;  23.861;  -0.473;  -0.759;   7.631;   7.623;  -7.625;   0.278;  -0.063;;;;;;;;;;;;;;;;;;
2015-10-15T00:28:10.309Z;0;1.3320e+01;0;     0.211;   900.508;  32786.359; 0;  32773.992;  32786.359;  33227.336;  32326.828;223;   7.633; 334.910;;; 171.385; 102.111;  23.862;  -0.473;  -0.759;   7.633;   7.625;  -7.628;   0.276;  -0.063;;;;;;;;;;;;;;;;;;
2015-10-15T00:28:26.309Z;0;1.3100e+01;0;     0.200;   900.508;  32517.035; 0;  32504.564;  32517.035;  32957.938;  32057.428;223;   7.635; 335.045;;; 171.519; 102.242;  23.863;  -0.473;  -0.759;   7.636;   7.628;  -7.630;   0.274;  -0.063;;;;;;;;;;;;;;;;;;
2015-10-15T00:28:42.309Z;0;1.3050e+01;0;     0.194;   900.508;  32451.932; 0;  32439.436;  32451.932;  32892.812;  31992.307;223;   7.637; 335.180;;; 171.654; 102.372;  23.864;  -0.474;  -0.759;   7.638;   7.630;  -7.632;   0.272;  -0.063;;;;;;;;;;;;;;;;;;